Time,TemperatureF,DewpointF,PressureIn,WindDirection,WindDirectionDegrees,WindSpeedMPH,WindSpeedGustMPH,Humidity,HourlyPrecipIn,Conditions,Clouds,dailyrainin,SolarRadiationWatts/m^2,SoftwareType,DateUTC
2013-03-30 00:00:00,39.0,26.7,30.23,South,185,1.0,2.0,61,0.00,,,0.00,0,Wunderground v.1.15,2013-03-30 04:00:00,
2013-03-30 00:04:00,39.1,26.8,30.23,South,185,2.0,2.0,61,0.00,,,0.00,0,Wunderground v.1.15,2013-03-30 04:04:00,
2013-03-30 00:07:00,38.9,26.6,30.23,South,185,2.0,2.0,61,0.00,,,0.00,0,Wunderground v.1.15,2013-03-30 04:07:00,
2013-03-30 00:12:00,38.7,26.8,30.23,South,185,1.0,2.0,62,0.00,,,0.00,0,Wunderground v.1.15,2013-03-30 04:12:00,
2013-03-30 00:16:00,38.4,26.9,30.23,South,185,0.0,2.0,63,0.00,,,0.00,0,Wunderground v.1.15,2013-03-30 04:16:00,
2013-03-30 00:21:00,38.0,26.9,30.23,South,185,1.0,1.0,64,0.00,,,0.00,0,Wunderground v.1.15,2013-03-30 04:21:00,
2013-03-30 00:26:00,37.7,26.6,30.23,South,185,1.0,2.0,64,0.00,,,0.00,0,Wunderground v.1.15,2013-03-30 04:26:00,
2013-03-30 00:32:00,37.5,26.8,30.23,South,185,2.0,3.0,65,0.00,,,0.00,0,Wunderground v.1.15,2013-03-30 04:32:00,
2013-03-30 00:37:00,37.4,26.7,30.23,South,185,0.0,3.0,65,0.00,,,0.00,0,Wunderground v.1.15,2013-03-30 04:37:00,
2013-03-30 00:42:00,37.4,26.7,30.23,South,185,2.0,2.0,65,0.00,,,0.00,0,Wunderground v.1.15,2013-03-30 04:42:00,
2013-03-30 00:47:00,37.5,26.8,30.23,South,185,1.0,3.0,65,0.00,,,0.00,0,Wunderground v.1.15,2013-03-30 04:47:00,
2013-03-30 00:54:00,37.4,26.3,30.22,South,185,0.0,2.0,64,0.00,,,0.00,0,Wunderground v.1.15,2013-03-30 04:54:00,
2013-03-30 00:59:00,37.3,26.6,30.22,South,185,1.0,2.0,65,0.00,,,0.00,0,Wunderground v.1.15,2013-03-30 04:59:00,
2013-03-30 01:04:00,37.2,26.5,30.22,South,185,1.0,1.0,65,0.00,,,0.00,0,Wunderground v.1.15,2013-03-30 05:04:00,
2013-03-30 01:10:00,36.9,26.6,30.22,South,185,1.0,1.0,66,0.00,,,0.00,0,Wunderground v.1.15,2013-03-30 05:10:00,
2013-03-30 01:16:00,36.7,26.4,30.22,South,185,1.0,2.0,66,0.00,,,0.00,0,Wunderground v.1.15,2013-03-30 05:16:00,
2013-03-30 01:22:00,36.4,26.5,30.23,South,185,4.0,4.0,67,0.00,,,0.00,0,Wunderground v.1.15,2013-03-30 05:22:00,
2013-03-30 01:27:00,36.2,26.6,30.23,SSW,205,0.0,4.0,68,0.00,,,0.00,0,Wunderground v.1.15,2013-03-30 05:27:00,
2013-03-30 01:32:00,36.1,26.6,30.23,SSW,205,4.0,4.0,68,0.00,,,0.00,0,Wunderground v.1.15,2013-03-30 05:32:00,
2013-03-30 01:39:00,36.4,27.2,30.22,SSW,206,4.0,4.0,69,0.00,,,0.00,0,Wunderground v.1.15,2013-03-30 05:39:00,
2013-03-30 01:44:00,36.7,27.1,30.23,SSW,209,2.0,4.0,68,0.00,,,0.00,0,Wunderground v.1.15,2013-03-30 05:44:00,
2013-03-30 01:50:00,36.9,27.0,30.22,SSW,205,2.0,2.0,67,0.00,,,0.00,0,Wunderground v.1.15,2013-03-30 05:50:00,
2013-03-30 01:56:00,36.7,26.8,30.23,SSW,205,2.0,3.0,67,0.00,,,0.00,0,Wunderground v.1.15,2013-03-30 05:56:00,
2013-03-30 02:01:00,36.3,26.7,30.23,SSW,205,2.0,2.0,68,0.00,,,0.00,0,Wunderground v.1.15,2013-03-30 06:01:00,
2013-03-30 02:06:00,36.3,26.7,30.23,SSW,205,3.0,4.0,68,0.00,,,0.00,0,Wunderground v.1.15,2013-03-30 06:06:00,
2013-03-30 02:11:00,36.1,26.6,30.22,SSW,205,2.0,3.0,68,0.00,,,0.00,0,Wunderground v.1.15,2013-03-30 06:11:00,
2013-03-30 02:16:00,36.0,26.8,30.22,SSW,205,2.0,3.0,69,0.00,,,0.00,0,Wunderground v.1.15,2013-03-30 06:16:00,
2013-03-30 02:22:00,35.9,26.7,30.22,SSW,205,1.0,3.0,69,0.00,,,0.00,0,Wunderground v.1.15,2013-03-30 06:22:00,
2013-03-30 02:27:00,35.7,26.5,30.23,SSW,205,2.0,3.0,69,0.00,,,0.00,0,Wunderground v.1.15,2013-03-30 06:27:00,
2013-03-30 02:32:00,35.3,26.5,30.23,SSW,205,5.0,5.0,70,0.00,,,0.00,0,Wunderground v.1.15,2013-03-30 06:32:00,
2013-03-30 02:37:00,35.3,26.8,30.23,SSW,206,1.0,5.0,71,0.00,,,0.00,0,Wunderground v.1.15,2013-03-30 06:37:00,
2013-03-30 02:42:00,35.3,26.8,30.23,SSW,208,2.0,5.0,71,0.00,,,0.00,0,Wunderground v.1.15,2013-03-30 06:42:00,
2013-03-30 02:47:00,35.2,26.7,30.23,SSW,208,0.0,5.0,71,0.00,,,0.00,0,Wunderground v.1.15,2013-03-30 06:47:00,
2013-03-30 02:52:00,35.1,26.6,30.23,SSW,208,2.0,3.0,71,0.00,,,0.00,0,Wunderground v.1.15,2013-03-30 06:52:00,
2013-03-30 02:57:00,35.1,26.6,30.22,SSW,208,2.0,3.0,71,0.00,,,0.00,0,Wunderground v.1.15,2013-03-30 06:57:00,
2013-03-30 03:02:00,35.0,26.5,30.22,SSW,208,2.0,3.0,71,0.00,,,0.00,0,Wunderground v.1.15,2013-03-30 07:02:00,
2013-03-30 03:08:00,34.9,26.4,30.22,SSW,208,0.0,3.0,71,0.00,,,0.00,0,Wunderground v.1.15,2013-03-30 07:08:00,
2013-03-30 03:13:00,34.7,26.3,30.22,SSW,208,1.0,2.0,71,0.00,,,0.00,0,Wunderground v.1.15,2013-03-30 07:13:00,
2013-03-30 03:18:00,34.4,26.0,30.22,SSW,208,0.0,2.0,71,0.00,,,0.00,0,Wunderground v.1.15,2013-03-30 07:18:00,
2013-03-30 03:23:00,34.2,26.1,30.22,SSW,208,2.0,2.0,72,0.00,,,0.00,0,Wunderground v.1.15,2013-03-30 07:23:00,
2013-03-30 03:28:00,34.1,26.0,30.22,SSW,208,0.0,2.0,72,0.00,,,0.00,0,Wunderground v.1.15,2013-03-30 07:28:00,
2013-03-30 03:33:00,33.9,26.2,30.22,SSW,208,0.0,2.0,73,0.00,,,0.00,0,Wunderground v.1.15,2013-03-30 07:33:00,
2013-03-30 03:38:00,33.7,26.0,30.22,SSW,208,0.0,2.0,73,0.00,,,0.00,0,Wunderground v.1.15,2013-03-30 07:38:00,
2013-03-30 03:44:00,33.5,26.1,30.22,SSW,208,0.0,0.0,74,0.00,,,0.00,0,Wunderground v.1.15,2013-03-30 07:44:00,
2013-03-30 03:49:00,33.5,26.1,30.22,SSW,208,0.0,0.0,74,0.00,,,0.00,0,Wunderground v.1.15,2013-03-30 07:49:00,
2013-03-30 03:54:00,33.4,26.0,30.22,SSW,208,1.0,2.0,74,0.00,,,0.00,0,Wunderground v.1.15,2013-03-30 07:54:00,
2013-03-30 03:59:00,33.4,26.0,30.22,SSW,208,0.0,2.0,74,0.00,,,0.00,0,Wunderground v.1.15,2013-03-30 07:59:00,
2013-03-30 04:05:00,33.4,25.7,30.22,SSW,208,3.0,3.0,73,0.00,,,0.00,0,Wunderground v.1.15,2013-03-30 08:05:00,
2013-03-30 04:10:00,33.1,25.4,30.22,SSW,208,0.0,1.0,73,0.00,,,0.00,0,Wunderground v.1.15,2013-03-30 08:10:00,
2013-03-30 04:15:00,32.9,25.5,30.22,SSW,208,0.0,1.0,74,0.00,,,0.00,0,Wunderground v.1.15,2013-03-30 08:15:00,
2013-03-30 04:20:00,32.8,25.4,30.22,SSW,208,1.0,2.0,74,0.00,,,0.00,0,Wunderground v.1.15,2013-03-30 08:20:00,
2013-03-30 04:26:00,32.4,25.4,30.22,SSW,208,0.0,2.0,75,0.00,,,0.00,0,Wunderground v.1.15,2013-03-30 08:26:00,
2013-03-30 04:31:00,32.1,25.4,30.22,SSW,208,0.0,1.0,76,0.00,,,0.00,0,Wunderground v.1.15,2013-03-30 08:31:00,
2013-03-30 04:36:00,32.0,25.3,30.22,SSW,208,0.0,2.0,76,0.00,,,0.00,0,Wunderground v.1.15,2013-03-30 08:36:00,
2013-03-30 04:41:00,32.6,25.6,30.21,SSW,208,0.0,0.0,75,0.00,,,0.00,0,Wunderground v.1.15,2013-03-30 08:41:00,
2013-03-30 04:46:00,32.7,25.6,30.21,SSW,208,0.0,0.0,75,0.00,,,0.00,0,Wunderground v.1.15,2013-03-30 08:46:00,
2013-03-30 04:51:00,32.7,25.3,30.21,SSW,208,0.0,1.0,74,0.00,,,0.00,0,Wunderground v.1.15,2013-03-30 08:51:00,
2013-03-30 04:56:00,32.6,25.2,30.21,SSW,208,0.0,1.0,74,0.00,,,0.00,0,Wunderground v.1.15,2013-03-30 08:56:00,
2013-03-30 05:02:00,32.6,25.6,30.21,SSW,208,0.0,1.0,75,0.00,,,0.00,0,Wunderground v.1.15,2013-03-30 09:02:00,
2013-03-30 05:07:00,32.5,25.1,30.22,SSW,208,0.0,2.0,74,0.00,,,0.00,0,Wunderground v.1.15,2013-03-30 09:07:00,
2013-03-30 05:12:00,32.3,25.3,30.21,SSW,208,0.0,0.0,75,0.00,,,0.00,0,Wunderground v.1.15,2013-03-30 09:12:00,
2013-03-30 05:17:00,32.0,25.3,30.21,SSW,208,0.0,0.0,76,0.00,,,0.00,0,Wunderground v.1.15,2013-03-30 09:17:00,
2013-03-30 05:22:00,31.7,25.0,30.21,SSW,208,0.0,2.0,76,0.00,,,0.00,0,Wunderground v.1.15,2013-03-30 09:22:00,
2013-03-30 05:27:00,31.3,24.9,30.21,SSW,208,0.0,2.0,77,0.00,,,0.00,0,Wunderground v.1.15,2013-03-30 09:27:00,
2013-03-30 05:32:00,31.2,24.8,30.21,SSW,208,0.0,0.0,77,0.00,,,0.00,0,Wunderground v.1.15,2013-03-30 09:32:00,
2013-03-30 05:34:00,31.2,24.8,30.21,SSW,208,1.0,1.0,77,0.00,,,0.00,0,Wunderground v.1.15,2013-03-30 09:34:00,
2013-03-30 05:39:00,31.1,24.7,30.21,SSW,208,1.0,1.0,77,0.00,,,0.00,0,Wunderground v.1.15,2013-03-30 09:39:00,
2013-03-30 05:44:00,31.2,25.1,30.21,SSW,208,0.0,2.0,78,0.00,,,0.00,0,Wunderground v.1.15,2013-03-30 09:44:00,
2013-03-30 05:50:00,31.5,25.1,30.21,SSW,208,0.0,0.0,77,0.00,,,0.00,0,Wunderground v.1.15,2013-03-30 09:50:00,
2013-03-30 05:55:00,31.5,25.1,30.21,SSW,208,0.0,1.0,77,0.00,,,0.00,0,Wunderground v.1.15,2013-03-30 09:55:00,
2013-03-30 06:00:00,31.7,25.0,30.22,SSW,208,4.0,4.0,76,0.00,,,0.00,0,Wunderground v.1.15,2013-03-30 10:00:00,
2013-03-30 06:05:00,31.6,24.9,30.22,SSW,208,2.0,4.0,76,0.00,,,0.00,0,Wunderground v.1.15,2013-03-30 10:05:00,
2013-03-30 06:10:00,31.5,24.8,30.22,SSW,208,3.0,3.0,76,0.00,,,0.00,0,Wunderground v.1.15,2013-03-30 10:10:00,
2013-03-30 06:15:00,31.4,24.7,30.22,SSW,208,3.0,3.0,76,0.00,,,0.00,0,Wunderground v.1.15,2013-03-30 10:15:00,
2013-03-30 06:20:00,31.3,24.9,30.22,SSW,208,1.0,2.0,77,0.00,,,0.00,0,Wunderground v.1.15,2013-03-30 10:20:00,
2013-03-30 06:25:00,31.1,24.7,30.22,SSW,208,2.0,3.0,77,0.00,,,0.00,0,Wunderground v.1.15,2013-03-30 10:25:00,
2013-03-30 06:31:00,31.0,24.9,30.22,WSW,242,2.0,6.0,78,0.00,,,0.00,0,Wunderground v.1.15,2013-03-30 10:31:00,
2013-03-30 06:36:00,31.1,24.7,30.22,WSW,243,4.0,6.0,77,0.00,,,0.00,0,Wunderground v.1.15,2013-03-30 10:36:00,
2013-03-30 06:41:00,31.0,24.6,30.22,WSW,243,2.0,3.0,77,0.00,,,0.00,0,Wunderground v.1.15,2013-03-30 10:41:00,
2013-03-30 06:46:00,30.9,26.3,30.22,WSW,243,3.0,3.0,83,0.00,,,0.00,0,Wunderground v.1.15,2013-03-30 10:46:00,
2013-03-30 06:51:00,30.9,24.5,30.22,WSW,243,2.0,3.0,77,0.00,,,0.00,0,Wunderground v.1.15,2013-03-30 10:51:00,
2013-03-30 06:56:00,31.0,24.6,30.22,WSW,243,3.0,4.0,77,0.00,,,0.00,0,Wunderground v.1.15,2013-03-30 10:56:00,
2013-03-30 07:01:00,31.0,24.6,30.23,WSW,245,4.0,5.0,77,0.00,,,0.00,0,Wunderground v.1.15,2013-03-30 11:01:00,
2013-03-30 07:06:00,31.2,24.5,30.23,WSW,246,4.0,5.0,76,0.00,,,0.00,0,Wunderground v.1.15,2013-03-30 11:06:00,
2013-03-30 07:11:00,31.3,24.6,30.23,WSW,246,2.0,5.0,76,0.00,,,0.00,0,Wunderground v.1.15,2013-03-30 11:11:00,
2013-03-30 07:16:00,31.2,24.5,30.23,WSW,246,4.0,5.0,76,0.00,,,0.00,0,Wunderground v.1.15,2013-03-30 11:16:00,
2013-03-30 07:21:00,31.2,24.2,30.23,WSW,246,3.0,5.0,75,0.00,,,0.00,0,Wunderground v.1.15,2013-03-30 11:21:00,
2013-03-30 07:26:00,31.2,24.2,30.24,WSW,257,5.0,6.0,75,0.00,,,0.00,7,Wunderground v.1.15,2013-03-30 11:26:00,
2013-03-30 07:32:00,31.1,24.1,30.24,WSW,254,3.0,5.0,75,0.00,,,0.00,11,Wunderground v.1.15,2013-03-30 11:32:00,
2013-03-30 07:37:00,31.2,24.2,30.24,WSW,252,5.0,7.0,75,0.00,,,0.00,14,Wunderground v.1.15,2013-03-30 11:37:00,
2013-03-30 07:42:00,31.2,24.2,30.24,WSW,251,2.0,4.0,75,0.00,,,0.00,18,Wunderground v.1.15,2013-03-30 11:42:00,
2013-03-30 07:47:00,31.3,24.3,30.24,WSW,257,2.0,4.0,75,0.00,,,0.00,23,Wunderground v.1.15,2013-03-30 11:47:00,
2013-03-30 07:52:00,31.4,24.4,30.24,WSW,254,4.0,5.0,75,0.00,,,0.00,28,Wunderground v.1.15,2013-03-30 11:52:00,
2013-03-30 07:57:00,31.5,24.5,30.25,WSW,255,3.0,5.0,75,0.00,,,0.00,35,Wunderground v.1.15,2013-03-30 11:57:00,
2013-03-30 08:04:00,31.9,24.9,30.25,WSW,252,4.0,5.0,75,0.00,,,0.00,56,Wunderground v.1.15,2013-03-30 12:04:00,
2013-03-30 08:09:00,32.3,25.3,30.25,WSW,253,2.0,5.0,75,0.00,,,0.00,70,Wunderground v.1.15,2013-03-30 12:09:00,
2013-03-30 08:14:00,32.7,25.3,30.25,WSW,252,3.0,6.0,74,0.00,,,0.00,90,Wunderground v.1.15,2013-03-30 12:14:00,
2013-03-30 08:20:00,33.2,25.5,30.25,WSW,252,3.0,3.0,73,0.00,,,0.00,91,Wunderground v.1.15,2013-03-30 12:20:00,
2013-03-30 08:25:00,33.5,25.4,30.24,West,271,3.0,7.0,72,0.00,,,0.00,98,Wunderground v.1.15,2013-03-30 12:25:00,
2013-03-30 08:30:00,33.9,25.8,30.24,WSW,248,3.0,3.0,72,0.00,,,0.00,100,Wunderground v.1.15,2013-03-30 12:30:00,
2013-03-30 08:35:00,34.2,25.8,30.24,WSW,257,3.0,6.0,71,0.00,,,0.00,107,Wunderground v.1.15,2013-03-30 12:35:00,
2013-03-30 08:40:00,34.6,26.2,30.24,West,259,3.0,4.0,71,0.00,,,0.00,113,Wunderground v.1.15,2013-03-30 12:40:00,
2013-03-30 08:45:00,34.9,26.4,30.24,WSW,250,4.0,5.0,71,0.00,,,0.00,202,Wunderground v.1.15,2013-03-30 12:45:00,
2013-03-30 08:50:00,35.3,26.5,30.24,WSW,254,1.0,3.0,70,0.00,,,0.00,193,Wunderground v.1.15,2013-03-30 12:50:00,
2013-03-30 08:56:00,35.9,26.7,30.24,WNW,284,2.0,5.0,69,0.00,,,0.00,234,Wunderground v.1.15,2013-03-30 12:56:00,
2013-03-30 09:01:00,36.5,27.3,30.23,WSW,240,0.0,3.0,69,0.00,,,0.00,251,Wunderground v.1.15,2013-03-30 13:01:00,
2013-03-30 09:06:00,37.2,28.0,30.23,WSW,240,1.0,5.0,69,0.00,,,0.00,274,Wunderground v.1.15,2013-03-30 13:06:00,
2013-03-30 09:11:00,37.7,28.1,30.24,West,278,3.0,4.0,68,0.00,,,0.00,295,Wunderground v.1.15,2013-03-30 13:11:00,
2013-03-30 09:16:00,38.2,28.6,30.23,West,259,4.0,5.0,68,0.00,,,0.00,302,Wunderground v.1.15,2013-03-30 13:16:00,
2013-03-30 09:22:00,39.1,29.1,30.23,West,273,2.0,3.0,67,0.00,,,0.00,325,Wunderground v.1.15,2013-03-30 13:22:00,
2013-03-30 09:27:00,39.4,28.6,30.23,WNW,285,3.0,4.0,65,0.00,,,0.00,345,Wunderground v.1.15,2013-03-30 13:27:00,
2013-03-30 09:32:00,39.6,28.8,30.23,West,265,1.0,3.0,65,0.00,,,0.00,360,Wunderground v.1.15,2013-03-30 13:32:00,
2013-03-30 09:37:00,41.1,29.8,30.23,West,281,3.0,3.0,64,0.00,,,0.00,376,Wunderground v.1.15,2013-03-30 13:37:00,
2013-03-30 09:42:00,42.1,30.4,30.23,West,281,0.0,1.0,63,0.00,,,0.00,394,Wunderground v.1.15,2013-03-30 13:42:00,
2013-03-30 09:48:00,42.3,29.8,30.22,West,281,0.0,1.0,61,0.00,,,0.00,410,Wunderground v.1.15,2013-03-30 13:48:00,
2013-03-30 09:53:00,42.5,29.6,30.22,West,281,0.0,1.0,60,0.00,,,0.00,427,Wunderground v.1.15,2013-03-30 13:53:00,
2013-03-30 09:58:00,43.3,29.9,30.22,West,281,1.0,1.0,59,0.00,,,0.00,439,Wunderground v.1.15,2013-03-30 13:58:00,
2013-03-30 10:03:00,43.3,29.1,30.22,West,281,1.0,1.0,57,0.00,,,0.00,455,Wunderground v.1.15,2013-03-30 14:03:00,
2013-03-30 10:09:00,42.9,29.1,30.22,South,189,3.0,3.0,58,0.00,,,0.00,471,Wunderground v.1.15,2013-03-30 14:09:00,
2013-03-30 10:14:00,44.4,30.5,30.21,WSW,241,0.0,3.0,58,0.00,,,0.00,490,Wunderground v.1.15,2013-03-30 14:14:00,
2013-03-30 10:20:00,43.4,28.7,30.21,WSW,241,4.0,4.0,56,0.00,,,0.00,504,Wunderground v.1.15,2013-03-30 14:20:00,
2013-03-30 10:25:00,44.7,30.0,30.21,WSW,238,5.0,5.0,56,0.00,,,0.00,519,Wunderground v.1.15,2013-03-30 14:25:00,
2013-03-30 10:30:00,46.8,31.0,30.21,SW,234,3.0,5.0,54,0.00,,,0.00,533,Wunderground v.1.15,2013-03-30 14:30:00,
2013-03-30 10:35:00,46.0,29.3,30.21,SW,226,3.0,8.0,52,0.00,,,0.00,548,Wunderground v.1.15,2013-03-30 14:35:00,
2013-03-30 10:40:00,47.1,30.4,30.20,SW,236,5.0,6.0,52,0.00,,,0.00,563,Wunderground v.1.15,2013-03-30 14:40:00,
2013-03-30 10:46:00,47.5,30.3,30.20,WSW,244,2.0,6.0,51,0.00,,,0.00,575,Wunderground v.1.15,2013-03-30 14:46:00,
2013-03-30 10:51:00,45.1,28.5,30.20,South,182,6.0,6.0,52,0.00,,,0.00,591,Wunderground v.1.15,2013-03-30 14:51:00,
2013-03-30 10:56:00,46.3,30.1,30.20,SW,227,6.0,6.0,53,0.00,,,0.00,605,Wunderground v.1.15,2013-03-30 14:56:00,
2013-03-30 11:01:00,47.3,30.5,30.20,WSW,239,5.0,6.0,52,0.00,,,0.00,613,Wunderground v.1.15,2013-03-30 15:01:00,
2013-03-30 11:07:00,48.5,30.7,30.20,SW,218,4.0,7.0,50,0.00,,,0.00,628,Wunderground v.1.15,2013-03-30 15:07:00,
2013-03-30 11:12:00,47.3,30.1,30.20,SSW,201,6.0,8.0,51,0.00,,,0.00,640,Wunderground v.1.15,2013-03-30 15:12:00,
2013-03-30 11:17:00,48.5,30.7,30.20,SW,233,9.0,10.0,50,0.00,,,0.00,650,Wunderground v.1.15,2013-03-30 15:17:00,
2013-03-30 11:22:00,47.8,28.5,30.19,South,177,3.0,6.0,47,0.00,,,0.00,663,Wunderground v.1.15,2013-03-30 15:22:00,
2013-03-30 11:28:00,47.1,29.9,30.20,WSW,237,9.0,9.0,51,0.00,,,0.00,673,Wunderground v.1.15,2013-03-30 15:28:00,
2013-03-30 11:33:00,48.4,31.1,30.20,WSW,240,0.0,5.0,51,0.00,,,0.00,684,Wunderground v.1.15,2013-03-30 15:33:00,
2013-03-30 11:38:00,49.1,29.2,30.20,West,271,4.0,10.0,46,0.00,,,0.00,693,Wunderground v.1.15,2013-03-30 15:38:00,
2013-03-30 11:44:00,50.0,28.9,30.20,SW,224,6.0,8.0,44,0.00,,,0.00,703,Wunderground v.1.15,2013-03-30 15:44:00,
2013-03-30 11:50:00,49.9,29.9,30.20,WSW,240,5.0,5.0,46,0.00,,,0.00,715,Wunderground v.1.15,2013-03-30 15:50:00,
2013-03-30 11:55:00,50.3,29.7,30.20,SW,230,4.0,10.0,45,0.00,,,0.00,721,Wunderground v.1.15,2013-03-30 15:55:00,
2013-03-30 12:00:00,49.0,28.0,30.19,WSW,243,8.0,8.0,44,0.00,,,0.00,735,Wunderground v.1.15,2013-03-30 16:00:00,
2013-03-30 12:05:00,50.4,29.3,30.19,WSW,242,10.0,13.0,44,0.00,,,0.00,742,Wunderground v.1.15,2013-03-30 16:05:00,
2013-03-30 12:10:00,50.9,28.6,30.19,SSW,212,1.0,7.0,42,0.00,,,0.00,751,Wunderground v.1.15,2013-03-30 16:10:00,
2013-03-30 12:15:00,50.8,29.6,30.19,WSW,253,7.0,10.0,44,0.00,,,0.00,763,Wunderground v.1.15,2013-03-30 16:15:00,
2013-03-30 12:20:00,50.4,27.6,30.19,WSW,252,4.0,5.0,41,0.00,,,0.00,773,Wunderground v.1.15,2013-03-30 16:20:00,
2013-03-30 12:26:00,51.5,28.6,30.19,WSW,248,4.0,11.0,41,0.00,,,0.00,749,Wunderground v.1.15,2013-03-30 16:26:00,
2013-03-30 12:32:00,50.9,23.5,30.19,SSW,194,4.0,10.0,34,0.00,,,0.00,788,Wunderground v.1.15,2013-03-30 16:32:00,
2013-03-30 12:37:00,50.5,26.4,30.19,WSW,246,6.0,12.0,39,0.00,,,0.00,738,Wunderground v.1.15,2013-03-30 16:37:00,
2013-03-30 12:42:00,51.4,25.3,30.18,SSW,207,6.0,10.0,36,0.00,,,0.00,780,Wunderground v.1.15,2013-03-30 16:42:00,
2013-03-30 12:47:00,50.5,24.5,30.19,SSW,203,7.0,12.0,36,0.00,,,0.00,770,Wunderground v.1.15,2013-03-30 16:47:00,
2013-03-30 12:52:00,51.0,25.6,30.18,South,182,7.0,10.0,37,0.00,,,0.00,766,Wunderground v.1.15,2013-03-30 16:52:00,
2013-03-30 12:58:00,51.2,26.4,30.18,WSW,257,10.0,11.0,38,0.00,,,0.00,766,Wunderground v.1.15,2013-03-30 16:58:00,
2013-03-30 13:03:00,52.8,27.2,30.17,WSW,239,10.0,14.0,37,0.00,,,0.00,729,Wunderground v.1.15,2013-03-30 17:03:00,
2013-03-30 13:08:00,52.7,26.5,30.17,SW,220,8.0,14.0,36,0.00,,,0.00,735,Wunderground v.1.15,2013-03-30 17:08:00,
2013-03-30 13:13:00,53.2,26.9,30.17,WSW,238,10.0,10.0,36,0.00,,,0.00,726,Wunderground v.1.15,2013-03-30 17:13:00,
2013-03-30 13:18:00,52.0,25.8,30.16,South,174,6.0,13.0,36,0.00,,,0.00,717,Wunderground v.1.15,2013-03-30 17:18:00,
2013-03-30 13:24:00,53.0,26.0,30.16,SW,236,8.0,9.0,35,0.00,,,0.00,779,Wunderground v.1.15,2013-03-30 17:24:00,
2013-03-30 13:30:00,53.8,28.1,30.16,SW,216,8.0,16.0,37,0.00,,,0.00,763,Wunderground v.1.15,2013-03-30 17:30:00,
2013-03-30 13:35:00,53.6,28.6,30.15,WSW,248,7.0,12.0,38,0.00,,,0.00,729,Wunderground v.1.15,2013-03-30 17:35:00,
2013-03-30 13:40:00,53.4,28.4,30.15,WSW,252,11.0,11.0,38,0.00,,,0.00,715,Wunderground v.1.15,2013-03-30 17:40:00,
2013-03-30 13:45:00,53.5,27.2,30.15,SW,234,6.0,16.0,36,0.00,,,0.00,823,Wunderground v.1.15,2013-03-30 17:45:00,
2013-03-30 13:50:00,53.7,27.4,30.15,WSW,241,10.0,10.0,36,0.00,,,0.00,816,Wunderground v.1.15,2013-03-30 17:50:00,
2013-03-30 13:55:00,54.5,28.1,30.15,WSW,254,12.0,13.0,36,0.00,,,0.00,812,Wunderground v.1.15,2013-03-30 17:55:00,
2013-03-30 14:00:00,54.1,27.0,30.15,SW,229,9.0,12.0,35,0.00,,,0.00,810,Wunderground v.1.15,2013-03-30 18:00:00,
2013-03-30 14:05:00,54.0,28.3,30.14,WSW,241,7.0,12.0,37,0.00,,,0.00,802,Wunderground v.1.15,2013-03-30 18:05:00,
2013-03-30 14:11:00,54.9,28.4,30.14,WSW,240,9.0,12.0,36,0.00,,,0.00,800,Wunderground v.1.15,2013-03-30 18:11:00,
2013-03-30 14:17:00,55.0,29.2,30.14,SW,236,11.0,14.0,37,0.00,,,0.00,789,Wunderground v.1.15,2013-03-30 18:17:00,
2013-03-30 14:22:00,53.9,28.2,30.13,SW,232,12.0,12.0,37,0.00,,,0.00,784,Wunderground v.1.15,2013-03-30 18:22:00,
2013-03-30 14:27:00,54.6,28.2,30.13,WSW,241,6.0,16.0,36,0.00,,,0.00,786,Wunderground v.1.15,2013-03-30 18:27:00,
2013-03-30 14:32:00,55.3,30.1,30.13,WSW,242,10.0,10.0,38,0.00,,,0.00,773,Wunderground v.1.15,2013-03-30 18:32:00,
2013-03-30 14:38:00,55.5,29.6,30.13,WSW,246,5.0,13.0,37,0.00,,,0.00,772,Wunderground v.1.15,2013-03-30 18:38:00,
2013-03-30 14:43:00,55.5,29.6,30.13,South,186,5.0,7.0,37,0.00,,,0.00,766,Wunderground v.1.15,2013-03-30 18:43:00,
2013-03-30 14:48:00,55.8,29.9,30.13,WSW,244,7.0,10.0,37,0.00,,,0.00,761,Wunderground v.1.15,2013-03-30 18:48:00,
2013-03-30 14:53:00,56.4,29.7,30.13,WSW,242,7.0,11.0,36,0.00,,,0.00,754,Wunderground v.1.15,2013-03-30 18:53:00,
2013-03-30 14:58:00,54.7,27.6,30.13,SSW,207,11.0,13.0,35,0.00,,,0.00,707,Wunderground v.1.15,2013-03-30 18:58:00,
2013-03-30 15:04:00,55.3,29.4,30.12,WSW,240,6.0,12.0,37,0.00,,,0.00,708,Wunderground v.1.15,2013-03-30 19:04:00,
2013-03-30 15:09:00,56.2,29.6,30.12,WSW,251,8.0,16.0,36,0.00,,,0.00,677,Wunderground v.1.15,2013-03-30 19:09:00,
2013-03-30 15:14:00,56.0,28.7,30.11,WSW,239,5.0,13.0,35,0.00,,,0.00,664,Wunderground v.1.15,2013-03-30 19:14:00,
2013-03-30 15:20:00,56.4,29.7,30.11,SSW,206,6.0,8.0,36,0.00,,,0.00,670,Wunderground v.1.15,2013-03-30 19:20:00,
2013-03-30 15:25:00,55.3,28.8,30.11,SW,234,6.0,13.0,36,0.00,,,0.00,636,Wunderground v.1.15,2013-03-30 19:25:00,
2013-03-30 15:30:00,55.3,28.8,30.11,SW,215,3.0,8.0,36,0.00,,,0.00,680,Wunderground v.1.15,2013-03-30 19:30:00,
2013-03-30 15:35:00,56.0,30.1,30.10,West,267,11.0,11.0,37,0.00,,,0.00,650,Wunderground v.1.15,2013-03-30 19:35:00,
2013-03-30 15:40:00,55.7,27.7,30.10,SW,215,4.0,10.0,34,0.00,,,0.00,656,Wunderground v.1.15,2013-03-30 19:40:00,
2013-03-30 15:45:00,55.2,28.0,30.10,WSW,242,8.0,11.0,35,0.00,,,0.00,568,Wunderground v.1.15,2013-03-30 19:45:00,
2013-03-30 15:50:00,55.7,28.4,30.10,WSW,249,8.0,12.0,35,0.00,,,0.00,628,Wunderground v.1.15,2013-03-30 19:50:00,
2013-03-30 15:55:00,56.6,29.9,30.09,WSW,241,1.0,12.0,36,0.00,,,0.00,508,Wunderground v.1.15,2013-03-30 19:55:00,
2013-03-30 16:00:00,56.0,28.7,30.09,SSW,210,8.0,13.0,35,0.00,,,0.00,550,Wunderground v.1.15,2013-03-30 20:00:00,
2013-03-30 16:05:00,56.4,29.1,30.09,WSW,246,5.0,13.0,35,0.00,,,0.00,557,Wunderground v.1.15,2013-03-30 20:05:00,
2013-03-30 16:10:00,56.3,28.3,30.09,SSE,168,6.0,7.0,34,0.00,,,0.00,592,Wunderground v.1.15,2013-03-30 20:10:00,
2013-03-30 16:16:00,55.3,28.1,30.08,SSW,209,5.0,12.0,35,0.00,,,0.00,527,Wunderground v.1.15,2013-03-30 20:16:00,
2013-03-30 16:21:00,56.0,28.7,30.08,West,279,5.0,8.0,35,0.00,,,0.00,476,Wunderground v.1.15,2013-03-30 20:21:00,
2013-03-30 16:26:00,56.7,29.3,30.08,West,261,8.0,11.0,35,0.00,,,0.00,413,Wunderground v.1.15,2013-03-30 20:26:00,
2013-03-30 16:31:00,56.7,29.3,30.08,WSW,245,8.0,9.0,35,0.00,,,0.00,408,Wunderground v.1.15,2013-03-30 20:31:00,
2013-03-30 16:37:00,56.9,30.2,30.08,SW,235,7.0,11.0,36,0.00,,,0.00,387,Wunderground v.1.15,2013-03-30 20:37:00,
2013-03-30 16:42:00,56.4,29.1,30.08,SW,232,8.0,12.0,35,0.00,,,0.00,359,Wunderground v.1.15,2013-03-30 20:42:00,
2013-03-30 16:47:00,55.9,27.9,30.07,SW,231,7.0,12.0,34,0.00,,,0.00,278,Wunderground v.1.15,2013-03-30 20:47:00,
2013-03-30 16:52:00,55.6,28.4,30.07,South,176,4.0,8.0,35,0.00,,,0.00,287,Wunderground v.1.15,2013-03-30 20:52:00,
2013-03-30 16:57:00,55.2,29.4,30.07,SW,229,4.0,9.0,37,0.00,,,0.00,323,Wunderground v.1.15,2013-03-30 20:57:00,
2013-03-30 17:02:00,55.8,29.9,30.07,WSW,245,5.0,10.0,37,0.00,,,0.00,345,Wunderground v.1.15,2013-03-30 21:02:00,
2013-03-30 17:07:00,55.7,29.8,30.07,SW,236,9.0,10.0,37,0.00,,,0.00,327,Wunderground v.1.15,2013-03-30 21:07:00,
2013-03-30 17:12:00,55.8,29.2,30.06,SW,223,7.0,13.0,36,0.00,,,0.00,323,Wunderground v.1.15,2013-03-30 21:12:00,
2013-03-30 17:19:00,55.9,29.3,30.06,West,271,7.0,13.0,36,0.00,,,0.00,274,Wunderground v.1.15,2013-03-30 21:19:00,
2013-03-30 17:25:00,55.0,28.5,30.06,SSW,196,5.0,11.0,36,0.00,,,0.00,244,Wunderground v.1.15,2013-03-30 21:25:00,
2013-03-30 17:30:00,54.7,28.9,30.06,SSW,202,5.0,6.0,37,0.00,,,0.00,213,Wunderground v.1.15,2013-03-30 21:30:00,
2013-03-30 17:35:00,55.0,29.2,30.06,SSE,164,4.0,14.0,37,0.00,,,0.00,192,Wunderground v.1.15,2013-03-30 21:35:00,
2013-03-30 17:40:00,55.0,29.8,30.05,WSW,246,4.0,6.0,38,0.00,,,0.00,183,Wunderground v.1.15,2013-03-30 21:40:00,
2013-03-30 17:45:00,55.2,29.4,30.05,WSW,243,6.0,6.0,37,0.00,,,0.00,174,Wunderground v.1.15,2013-03-30 21:45:00,
2013-03-30 17:50:00,55.0,28.5,30.05,SSW,205,7.0,7.0,36,0.00,,,0.00,174,Wunderground v.1.15,2013-03-30 21:50:00,
2013-03-30 17:55:00,54.9,29.1,30.05,SSE,158,7.0,7.0,37,0.00,,,0.00,165,Wunderground v.1.15,2013-03-30 21:55:00,
2013-03-30 18:00:00,54.9,29.7,30.05,SW,215,7.0,7.0,38,0.00,,,0.00,149,Wunderground v.1.15,2013-03-30 22:00:00,
2013-03-30 18:05:00,55.0,29.8,30.04,SSW,213,9.0,12.0,38,0.00,,,0.00,137,Wunderground v.1.15,2013-03-30 22:05:00,
2013-03-30 18:11:00,54.8,29.7,30.04,SW,226,5.0,7.0,38,0.00,,,0.00,125,Wunderground v.1.15,2013-03-30 22:11:00,
2013-03-30 18:16:00,54.7,30.8,30.04,SSW,202,3.0,12.0,40,0.00,,,0.00,113,Wunderground v.1.15,2013-03-30 22:16:00,
2013-03-30 18:21:00,54.5,30.6,30.04,SSW,203,2.0,5.0,40,0.00,,,0.00,105,Wunderground v.1.15,2013-03-30 22:21:00,
2013-03-30 18:26:00,54.5,30.6,30.04,SSW,200,6.0,7.0,40,0.00,,,0.00,97,Wunderground v.1.15,2013-03-30 22:26:00,
2013-03-30 18:31:00,54.4,30.6,30.03,South,180,11.0,11.0,40,0.00,,,0.00,90,Wunderground v.1.15,2013-03-30 22:31:00,
2013-03-30 18:37:00,54.2,30.4,30.03,SSW,193,5.0,11.0,40,0.00,,,0.00,83,Wunderground v.1.15,2013-03-30 22:37:00,
2013-03-30 18:42:00,54.1,30.9,30.03,SW,216,0.0,5.0,41,0.00,,,0.00,74,Wunderground v.1.15,2013-03-30 22:42:00,
2013-03-30 18:47:00,54.1,30.9,30.03,SSW,206,4.0,9.0,41,0.00,,,0.00,67,Wunderground v.1.15,2013-03-30 22:47:00,
2013-03-30 18:52:00,54.0,31.4,30.04,SW,222,4.0,10.0,42,0.00,,,0.00,58,Wunderground v.1.15,2013-03-30 22:52:00,
2013-03-30 18:57:00,53.9,31.3,30.04,SW,219,5.0,10.0,42,0.00,,,0.00,51,Wunderground v.1.15,2013-03-30 22:57:00,
2013-03-30 19:02:00,53.8,31.8,30.04,SW,223,6.0,8.0,43,0.00,,,0.00,42,Wunderground v.1.15,2013-03-30 23:02:00,
2013-03-30 19:07:00,53.7,31.7,30.04,SW,219,5.0,8.0,43,0.00,,,0.00,37,Wunderground v.1.15,2013-03-30 23:07:00,
2013-03-30 19:12:00,53.5,31.5,30.03,SW,220,2.0,6.0,43,0.00,,,0.00,30,Wunderground v.1.15,2013-03-30 23:12:00,
2013-03-30 19:18:00,53.4,32.0,30.03,SW,220,6.0,6.0,44,0.00,,,0.00,25,Wunderground v.1.15,2013-03-30 23:18:00,
2013-03-30 19:23:00,53.2,31.8,30.03,SSW,213,4.0,7.0,44,0.00,,,0.00,21,Wunderground v.1.15,2013-03-30 23:23:00,
2013-03-30 19:28:00,53.0,32.2,30.03,SSW,213,6.0,7.0,45,0.00,,,0.00,16,Wunderground v.1.15,2013-03-30 23:28:00,
2013-03-30 19:33:00,52.9,32.1,30.03,South,188,3.0,4.0,45,0.00,,,0.00,12,Wunderground v.1.15,2013-03-30 23:33:00,
2013-03-30 19:39:00,52.7,32.5,30.03,SW,232,4.0,5.0,46,0.00,,,0.00,9,Wunderground v.1.15,2013-03-30 23:39:00,
2013-03-30 19:44:00,52.6,32.4,30.03,SW,228,4.0,5.0,46,0.00,,,0.00,5,Wunderground v.1.15,2013-03-30 23:44:00,
2013-03-30 19:49:00,52.4,32.2,30.03,SW,223,2.0,5.0,46,0.00,,,0.00,0,Wunderground v.1.15,2013-03-30 23:49:00,
2013-03-30 19:55:00,52.2,32.0,30.03,SW,231,0.0,4.0,46,0.00,,,0.00,0,Wunderground v.1.15,2013-03-30 23:55:00,
2013-03-30 20:00:00,52.1,32.5,30.03,SW,230,2.0,2.0,47,0.00,,,0.00,0,Wunderground v.1.15,2013-03-31 00:00:00,
2013-03-30 20:05:00,51.9,32.3,30.03,SW,228,1.0,5.0,47,0.00,,,0.00,0,Wunderground v.1.15,2013-03-31 00:05:00,
2013-03-30 20:10:00,51.8,32.7,30.03,SW,222,0.0,2.0,48,0.00,,,0.00,0,Wunderground v.1.15,2013-03-31 00:10:00,
2013-03-30 20:15:00,51.5,32.4,30.03,SW,222,0.0,2.0,48,0.00,,,0.00,0,Wunderground v.1.15,2013-03-31 00:15:00,
2013-03-30 20:20:00,51.3,32.3,30.03,SW,222,0.0,0.0,48,0.00,,,0.00,0,Wunderground v.1.15,2013-03-31 00:20:00,
2013-03-30 20:25:00,51.1,32.6,30.02,SW,222,2.0,2.0,49,0.00,,,0.00,0,Wunderground v.1.15,2013-03-31 00:25:00,
2013-03-30 20:31:00,51.0,32.5,30.02,SW,222,0.0,1.0,49,0.00,,,0.00,0,Wunderground v.1.15,2013-03-31 00:31:00,
2013-03-30 20:36:00,50.9,32.4,30.02,SW,222,1.0,2.0,49,0.00,,,0.00,0,Wunderground v.1.15,2013-03-31 00:36:00,
2013-03-30 20:41:00,50.7,33.2,30.02,SW,222,0.0,0.0,51,0.00,,,0.00,0,Wunderground v.1.15,2013-03-31 00:41:00,
2013-03-30 20:46:00,50.0,33.5,30.02,SW,222,0.0,0.0,53,0.00,,,0.00,0,Wunderground v.1.15,2013-03-31 00:46:00,
2013-03-30 20:51:00,49.5,33.1,30.02,SW,222,0.0,0.0,53,0.00,,,0.00,0,Wunderground v.1.15,2013-03-31 00:51:00,
2013-03-30 20:56:00,49.1,32.7,30.01,SW,222,0.0,0.0,53,0.00,,,0.00,0,Wunderground v.1.15,2013-03-31 00:56:00,
2013-03-30 21:01:00,49.0,33.1,30.01,SW,222,0.0,0.0,54,0.00,,,0.00,0,Wunderground v.1.15,2013-03-31 01:01:00,
2013-03-30 21:06:00,48.9,33.4,30.02,SW,222,0.0,0.0,55,0.00,,,0.00,0,Wunderground v.1.15,2013-03-31 01:06:00,
2013-03-30 21:11:00,48.8,33.3,30.01,SW,222,0.0,0.0,55,0.00,,,0.00,0,Wunderground v.1.15,2013-03-31 01:11:00,
2013-03-30 21:17:00,48.6,33.6,30.01,SW,222,0.0,0.0,56,0.00,,,0.00,0,Wunderground v.1.15,2013-03-31 01:17:00,
2013-03-30 21:22:00,48.4,33.4,30.01,SW,222,0.0,0.0,56,0.00,,,0.00,0,Wunderground v.1.15,2013-03-31 01:22:00,
2013-03-30 21:27:00,48.1,34.0,30.01,SW,222,0.0,0.0,58,0.00,,,0.00,0,Wunderground v.1.15,2013-03-31 01:27:00,
2013-03-30 21:32:00,47.9,34.3,30.01,SW,222,0.0,0.0,59,0.00,,,0.00,0,Wunderground v.1.15,2013-03-31 01:32:00,
2013-03-30 21:37:00,47.7,34.1,30.00,SW,222,0.0,0.0,59,0.00,,,0.00,0,Wunderground v.1.15,2013-03-31 01:37:00,
2013-03-30 21:42:00,47.5,34.3,30.00,SW,222,0.0,0.0,60,0.00,,,0.00,0,Wunderground v.1.15,2013-03-31 01:42:00,
2013-03-30 21:47:00,47.3,34.1,30.00,SW,222,0.0,0.0,60,0.00,,,0.00,0,Wunderground v.1.15,2013-03-31 01:47:00,
2013-03-30 21:52:00,47.2,34.0,30.00,SW,222,0.0,0.0,60,0.00,,,0.00,0,Wunderground v.1.15,2013-03-31 01:52:00,
2013-03-30 21:57:00,47.2,34.4,30.00,SW,222,0.0,0.0,61,0.00,,,0.00,0,Wunderground v.1.15,2013-03-31 01:57:00,
2013-03-30 22:02:00,47.0,34.2,30.00,SW,222,0.0,0.0,61,0.00,,,0.00,0,Wunderground v.1.15,2013-03-31 02:02:00,
2013-03-30 22:07:00,46.7,34.4,30.00,SW,222,0.0,0.0,62,0.00,,,0.00,0,Wunderground v.1.15,2013-03-31 02:07:00,
2013-03-30 22:12:00,46.5,33.8,30.00,SW,222,0.0,0.0,61,0.00,,,0.00,0,Wunderground v.1.15,2013-03-31 02:12:00,
2013-03-30 22:17:00,46.6,33.9,29.99,SW,222,0.0,0.0,61,0.00,,,0.00,0,Wunderground v.1.15,2013-03-31 02:17:00,
2013-03-30 22:22:00,46.7,34.0,29.99,SW,222,0.0,0.0,61,0.00,,,0.00,0,Wunderground v.1.15,2013-03-31 02:22:00,
2013-03-30 22:28:00,46.5,33.8,29.99,SW,222,0.0,0.0,61,0.00,,,0.00,0,Wunderground v.1.15,2013-03-31 02:28:00,
2013-03-30 22:33:00,46.2,33.9,29.99,SW,222,0.0,0.0,62,0.00,,,0.00,0,Wunderground v.1.15,2013-03-31 02:33:00,
2013-03-30 22:38:00,45.8,33.5,29.98,South,171,0.0,0.0,62,0.00,,,0.00,0,Wunderground v.1.15,2013-03-31 02:38:00,
2013-03-30 22:43:00,45.9,33.6,29.98,South,171,0.0,0.0,62,0.00,,,0.00,0,Wunderground v.1.15,2013-03-31 02:43:00,
2013-03-30 22:49:00,45.9,33.2,29.98,South,171,0.0,0.0,61,0.00,,,0.00,0,Wunderground v.1.15,2013-03-31 02:49:00,
2013-03-30 22:55:00,45.7,33.4,29.97,South,171,0.0,1.0,62,0.00,,,0.00,0,Wunderground v.1.15,2013-03-31 02:55:00,
2013-03-30 23:00:00,45.4,33.5,29.97,SE,144,0.0,0.0,63,0.00,,,0.00,0,Wunderground v.1.15,2013-03-31 03:00:00,
2013-03-30 23:05:00,45.1,33.2,29.97,SE,144,0.0,0.0,63,0.00,,,0.00,0,Wunderground v.1.15,2013-03-31 03:05:00,
2013-03-30 23:10:00,45.3,33.0,29.97,SE,143,0.0,0.0,62,0.00,,,0.00,0,Wunderground v.1.15,2013-03-31 03:10:00,
2013-03-30 23:15:00,45.6,32.9,29.97,SE,143,0.0,0.0,61,0.00,,,0.00,0,Wunderground v.1.15,2013-03-31 03:15:00,
2013-03-30 23:20:00,45.8,32.7,29.97,SE,143,0.0,0.0,60,0.00,,,0.00,0,Wunderground v.1.15,2013-03-31 03:20:00,
2013-03-30 23:25:00,45.8,32.7,29.97,SE,143,0.0,0.0,60,0.00,,,0.00,0,Wunderground v.1.15,2013-03-31 03:25:00,
2013-03-30 23:31:00,45.6,32.9,29.96,SE,143,0.0,0.0,61,0.00,,,0.00,0,Wunderground v.1.15,2013-03-31 03:31:00,
2013-03-30 23:36:00,45.5,32.8,29.96,SE,143,0.0,0.0,61,0.00,,,0.00,0,Wunderground v.1.15,2013-03-31 03:36:00,
2013-03-30 23:41:00,45.6,32.9,29.96,SE,143,2.0,2.0,61,0.00,,,0.00,0,Wunderground v.1.15,2013-03-31 03:41:00,
2013-03-30 23:47:00,45.8,32.7,29.96,SE,143,0.0,2.0,60,0.00,,,0.00,0,Wunderground v.1.15,2013-03-31 03:47:00,
2013-03-30 23:52:00,45.8,32.7,29.96,SE,143,0.0,0.0,60,0.00,,,0.00,0,Wunderground v.1.15,2013-03-31 03:52:00,
2013-03-30 23:57:00,45.9,32.8,29.96,SE,143,0.0,0.0,60,0.00,,,0.00,0,Wunderground v.1.15,2013-03-31 03:57:00,